When you browse on this site, cookies collect data to enhance your experience and personalize the content and advertising you see.
Visit our Privacy Policy to learn more. By continuing to use the site, you agree to this use of cookies and data.
  • In Czech Republic
  • List of Countries
  • For 7 days
  • Water Temperature
  • Satellite Maps
  • Weather Map
  • Weather Widgets
  • user-avatar
    Login

    Hourly Weather Saint-Nicolas

    Today, 19 February, Tuesday

    Time Temperature Precipitation Wind Pressure Humidity
    00:00 +7°C° 0 mm 3 mps 748 mmHg 90%
    01:00 +7°C° 0.2 mm 3 mps 748 mmHg 91%
    02:00 +7°C° 0.2 mm 3 mps 748 mmHg 92%
    03:00 +7°C° 0.2 mm 3 mps 748 mmHg 93%
    04:00 +7°C° 0.3 mm 3 mps 749 mmHg 94%
    05:00 +5°C° 0.3 mm 3 mps 749 mmHg 94%
    06:00 +5°C° 0.3 mm 3 mps 749 mmHg 94%
    07:00 +5°C° 0 mm 3 mps 749 mmHg 92%
    08:00 +6°C° 0 mm 4 mps 750 mmHg 89%
    09:00 +6°C° 0 mm 4 mps 750 mmHg 86%
    10:00 +7°C° 0 mm 4 mps 750 mmHg 80%
    11:00 +8°C° 0 mm 4 mps 750 mmHg 74%
    12:00 +9°C° 0 mm 5 mps 751 mmHg 68%
    13:00 +9°C° 0 mm 5 mps 750 mmHg 67%
    14:00 +10°C° 0 mm 4 mps 750 mmHg 67%
    15:00 +10°C° 0 mm 4 mps 750 mmHg 67%
    16:00 +8°C° 0 mm 4 mps 751 mmHg 71%
    17:00 +8°C° 0 mm 3 mps 751 mmHg 75%
    18:00 +7°C° 0 mm 2 mps 751 mmHg 79%
    19:00 +6°C° 0 mm 2 mps 751 mmHg 81%
    20:00 +6°C° 0 mm 2 mps 752 mmHg 83%
    21:00 +5°C° 0 mm 2 mps 752 mmHg 85%
    22:00 +5°C° 0 mm 2 mps 752 mmHg 86%
    23:00 +5°C° 0 mm 2 mps 752 mmHg 87%

    Tomorrow, 20 February, Wednesday

    Time Temperature Precipitation Wind Pressure Humidity
    00:00 +4°C° 0 mm 2 mps 752 mmHg 87%
    01:00 +4°C° 0 mm 2 mps 752 mmHg 85%
    02:00 +3°C° 0 mm 3 mps 752 mmHg 82%
    03:00 +3°C° 0 mm 3 mps 752 mmHg 80%
    04:00 +4°C° 0 mm 3 mps 752 mmHg 79%
    05:00 +4°C° 0 mm 3 mps 752 mmHg 77%
    06:00 +4°C° 0 mm 3 mps 752 mmHg 76%
    07:00 +5°C° 0 mm 3 mps 752 mmHg 76%
    08:00 +6°C° 0 mm 4 mps 753 mmHg 76%
    09:00 +6°C° 0 mm 4 mps 753 mmHg 77%
    10:00 +7°C° 0 mm 4 mps 753 mmHg 73%
    11:00 +10°C° 0 mm 4 mps 753 mmHg 68%
    12:00 +11°C° 0 mm 4 mps 753 mmHg 64%
    13:00 +11°C° 0 mm 4 mps 753 mmHg 64%
    14:00 +11°C° 0 mm 4 mps 753 mmHg 64%
    15:00 +11°C° 0 mm 4 mps 753 mmHg 63%
    16:00 +10°C° 0 mm 3 mps 753 mmHg 70%
    17:00 +8°C° 0 mm 3 mps 753 mmHg 76%
    18:00 +7°C° 0 mm 2 mps 754 mmHg 82%
    19:00 +7°C° 0 mm 3 mps 754 mmHg 84%
    20:00 +5°C° 0 mm 3 mps 754 mmHg 86%
    21:00 +5°C° 0 mm 3 mps 754 mmHg 88%
    22:00 +5°C° 0 mm 3 mps 755 mmHg 88%
    23:00 +4°C° 0 mm 3 mps 755 mmHg 89%

    Day after tomorrow, 21 February, Thursday

    Time Temperature Precipitation Wind Pressure Humidity
    00:00 +4°C° 0 mm 3 mps 755 mmHg 89%
    01:00 +4°C° 0 mm 3 mps 755 mmHg 90%
    02:00 +5°C° 0 mm 2 mps 755 mmHg 90%
    03:00 +4°C° 0 mm 2 mps 755 mmHg 91%
    04:00 +4°C° 0 mm 2 mps 756 mmHg 91%
    05:00 +4°C° 0 mm 2 mps 756 mmHg 91%
    06:00 +4°C° 0 mm 2 mps 756 mmHg 91%
    07:00 +4°C° 0 mm 3 mps 756 mmHg 88%
    08:00 +7°C° 0 mm 3 mps 757 mmHg 85%
    09:00 +8°C° 0 mm 3 mps 757 mmHg 81%
    10:00 +9°C° 0 mm 3 mps 757 mmHg 77%
    11:00 +10°C° 0 mm 3 mps 757 mmHg 73%
    12:00 +12°C° 0 mm 3 mps 758 mmHg 70%
    13:00 +12°C° 0 mm 3 mps 758 mmHg 69%
    14:00 +12°C° 0 mm 3 mps 758 mmHg 69%
    15:00 +12°C° 0 mm 3 mps 758 mmHg 69%
    16:00 +11°C° 0 mm 3 mps 758 mmHg 75%
    17:00 +9°C° 0 mm 2 mps 758 mmHg 81%
    18:00 +9°C° 0 mm 1 mps 758 mmHg 87%
    19:00 +8°C° 0 mm 1 mps 759 mmHg 88%
    20:00 +8°C° 0 mm 1 mps 759 mmHg 89%
    21:00 +8°C° 0 mm 1 mps 760 mmHg 90%
    22:00 +7°C° 0 mm 1 mps 760 mmHg 91%
    23:00 +6°C° 0 mm 2 mps 761 mmHg 91%

    22 February, Friday

    Time Temperature Precipitation Wind Pressure Humidity
    00:00 +6°C° 0 mm 2 mps 761 mmHg 92%
    01:00 +6°C° 0 mm 2 mps 761 mmHg 92%
    02:00 +7°C° 0 mm 1 mps 761 mmHg 92%
    03:00 +6°C° 0 mm 1 mps 761 mmHg 92%
    04:00 +6°C° 0 mm 1 mps 761 mmHg 92%
    05:00 +6°C° 0 mm 1 mps 762 mmHg 92%
    06:00 +6°C° 0 mm 1 mps 762 mmHg 92%
    07:00 +7°C° 0 mm 1 mps 762 mmHg 88%
    08:00 +9°C° 0 mm 1 mps 763 mmHg 85%
    09:00 +9°C° 0 mm 0 mps 763 mmHg 81%
    10:00 +11°C° 0 mm 1 mps 763 mmHg 75%
    11:00 +13°C° 0 mm 1 mps 763 mmHg 69%
    12:00 +14°C° 0 mm 1 mps 763 mmHg 62%
    13:00 +14°C° 0 mm 1 mps 763 mmHg 62%
    14:00 +14°C° 0 mm 1 mps 763 mmHg 61%
    15:00 +14°C° 0 mm 2 mps 763 mmHg 60%
    16:00 +13°C° 0 mm 2 mps 763 mmHg 66%
    17:00 +10°C° 0 mm 2 mps 763 mmHg 73%
    18:00 +8°C° 0 mm 2 mps 763 mmHg 79%
    19:00 +8°C° 0 mm 2 mps 763 mmHg 81%
    20:00 +8°C° 0 mm 2 mps 763 mmHg 82%
    21:00 +7°C° 0 mm 2 mps 763 mmHg 84%
    22:00 +7°C° 0 mm 2 mps 763 mmHg 85%
    23:00 +7°C° 0 mm 2 mps 763 mmHg 85%

    23 February, Saturday

    Time Temperature Precipitation Wind Pressure Humidity
    00:00 +7°C° 0 mm 2 mps 763 mmHg 86%
    01:00 +6°C° 0 mm 2 mps 763 mmHg 88%
    02:00 +7°C° 0 mm 1 mps 763 mmHg 89%
    03:00 +7°C° 0 mm 1 mps 762 mmHg 90%
    04:00 +7°C° 0 mm 1 mps 762 mmHg 90%
    05:00 +6°C° 0 mm 1 mps 762 mmHg 91%
    06:00 +6°C° 0 mm 1 mps 762 mmHg 91%
    07:00 +7°C° 0 mm 1 mps 763 mmHg 86%
    08:00 +8°C° 0 mm 2 mps 763 mmHg 81%
    09:00 +9°C° 0 mm 2 mps 763 mmHg 75%
    10:00 +12°C° 0 mm 2 mps 763 mmHg 68%
    11:00 +13°C° 0 mm 2 mps 763 mmHg 60%
    12:00 +15°C° 0 mm 2 mps 762 mmHg 53%
    13:00 +15°C° 0 mm 2 mps 762 mmHg 53%
    14:00 +15°C° 0 mm 2 mps 762 mmHg 53%
    15:00 +16°C° 0 mm 2 mps 761 mmHg 53%
    16:00 +14°C° 0 mm 2 mps 761 mmHg 58%
    17:00 +12°C° 0 mm 2 mps 761 mmHg 64%
    18:00 +9°C° 0 mm 2 mps 762 mmHg 69%
    19:00 +8°C° 0 mm 2 mps 762 mmHg 68%
    20:00 +7°C° 0 mm 2 mps 762 mmHg 67%
    21:00 +7°C° 0 mm 1 mps 762 mmHg 66%
    22:00 +7°C° 0 mm 1 mps 762 mmHg 65%
    23:00 +7°C° 0 mm 1 mps 762 mmHg 64%

    24 February, Sunday

    Time Temperature Precipitation Wind Pressure Humidity
    00:00 +7°C° 0 mm 1 mps 762 mmHg 63%
    01:00 +7°C° 0 mm 1 mps 762 mmHg 61%
    02:00 +7°C° 0 mm 1 mps 762 mmHg 59%
    03:00 +6°C° 0 mm 1 mps 761 mmHg 57%
    04:00 +6°C° 0 mm 1 mps 761 mmHg 54%
    05:00 +6°C° 0 mm 1 mps 761 mmHg 51%
    06:00 +6°C° 0 mm 1 mps 761 mmHg 49%
    07:00 +8°C° 0 mm 1 mps 762 mmHg 47%
    08:00 +10°C° 0 mm 1 mps 762 mmHg 46%
    09:00 +11°C° 0 mm 1 mps 762 mmHg 45%
    10:00 +13°C° 0 mm 1 mps 762 mmHg 43%
    11:00 +15°C° 0 mm 1 mps 762 mmHg 40%
    12:00 +16°C° 0 mm 1 mps 762 mmHg 38%
    13:00 +18°C° 0 mm 1 mps 762 mmHg 41%
    14:00 +18°C° 0 mm 1 mps 762 mmHg 44%
    15:00 +18°C° 0 mm 1 mps 761 mmHg 47%
    16:00 +15°C° 0 mm 1 mps 761 mmHg 52%
    17:00 +13°C° 0 mm 1 mps 761 mmHg 58%
    18:00 +11°C° 0 mm 1 mps 761 mmHg 63%
    19:00 +11°C° 0 mm 1 mps 762 mmHg 64%
    20:00 +10°C° 0 mm 1 mps 762 mmHg 65%
    21:00 +10°C° 0 mm 1 mps 762 mmHg 65%
    22:00 +9°C° 0 mm 1 mps 762 mmHg 64%
    23:00 +9°C° 0 mm 1 mps 762 mmHg 63%
    Show more